Location: Newark
(45.9456°N, 15.4064°E)
Time: 04:42:14
(UTC+00:00)

SR - Pass Details

Date: 03 February 2020
Orbit: 575 x 881 km, 66.7° (Epoch: 18 February)

Event Time Altitude Azimuth Distance (km) Brightness Sun altitude
Rises 21:43:27 0° 280° (W) 3,479 - -55.2°
Reaches altitude 10° 21:47:24 10° 306° (NW) 2,540 - -55.6°
Maximum altitude 21:50:19 14° 335° (NNW) 2,267 - -55.9°
Drops below altitude 10° 21:53:12 10° 5° (N) 2,506 - -56.2°
Sets 21:57:04 0° 31° (NNE) 3,399 - -56.6°
